Theta_e
300 302 304 308 316 318 312 311 308 307 306 304 302 301 299 299 299 299 300 299 298 298 297 296 295 295 294 293 294 293 293 293 293 292 294 296 298 297 297 297 296 297 297
295 298 300 300 312 316 313 310 308 307 305 305 303 300 300 298 298 298 298 298 298 297 297 295 294 294 293 293 293 292 291 293 292 290 290 291 294 295 297 296 296 294 295
293 294 296 298 301 311 314 310 307 306 305 304 302 301 299 298 296 296 295 296 297 296 295 295 294 293 293 291 291 291 291 290 291 292 290 289 288 288 294 294 294 293 293
292 293 294 295 298 306 313 311 308 306 304 303 301 299 297 295 295 295 295 295 296 295 295 294 293 293 292 291 291 292 291 290 289 291 293 290 289 285 285 291 292 292 292
293 292 292 293 297 300 307 311 307 305 304 303 301 298 296 295 296 296 294 293 293 293 293 293 292 292 292 291 291 290 290 290 289 289 289 288 288 288 285 281 286 288 290
292 293 293 293 294 297 301 307 306 304 303 302 300 298 297 296 295 294 292 292 291 291 292 293 291 291 291 291 290 290 290 289 289 289 289 288 286 286 285 283 284 283 287
291 292 291 291 292 294 298 303 304 303 302 301 299 298 298 297 295 294 293 292 290 289 290 290 290 290 291 291 290 290 289 289 289 288 289 290 290 290 289 288 287 285 287
292 291 291 291 291 293 296 300 302 301 301 299 298 299 297 297 296 295 294 293 291 290 290 291 291 291 291 290 290 289 289 290 291 290 290 290 290 290 290 288 286 284 285
291 292 291 291 291 292 294 297 299 300 299 298 297 298 297 296 295 294 294 293 292 292 290 290 290 290 290 290 290 288 288 290 290 290 290 289 290 290 290 290 289 286 282
290 291 292 291 292 292 293 295 298 298 297 297 296 296 295 295 295 294 293 292 291 291 290 289 289 289 289 289 289 289 290 289 289 289 289 289 289 290 290 290 290 290 287
288 290 293 293 292 292 293 293 296 296 296 296 295 294 293 293 293 292 292 291 290 290 290 289 289 289 289 289 289 290 289 287 286 289 288 288 289 289 289 290 290 289 289
288 288 289 291 292 292 292 292 294 295 295 296 294 292 292 292 291 290 289 290 288 289 289 289 288 289 289 289 288 288 288 286 287 287 287 287 289 288 289 289 288 288 288
286 287 288 288 289 290 291 292 292 293 294 294 292 291 289 289 288 288 288 288 287 286 287 288 287 287 286 287 289 289 289 287 286 287 287 287 288 287 287 287 286 287 287
285 286 285 286 287 288 288 290 291 292 293 292 290 288 288 288 287 287 287 286 286 286 286 285 285 285 285 286 286 288 287 286 285 285 285 287 287 287 286 286 285 286 285
283 282 282 284 285 286 287 287 287 289 290 289 287 287 287 287 287 286 286 286 286 286 286 286 285 282 284 285 285 286 287 286 281 282 285 287 286 285 285 285 284 284 284
278 280 281 283 284 285 286 286 287 287 288 287 287 286 286 286 286 286 285 285 285 285 284 285 282 281 284 288 288 287 286 284 283 282 281 283 282 286 286 286 286 286 284
275 279 281 282 283 284 286 286 286 287 286 287 287 286 286 286 285 284 283 283 283 284 282 281 281 281 282 288 289 289 284 283 282 282 282 282 284 283 282 285 285 285 286
275 280 281 282 283 285 286 286 286 285 286 287 287 286 286 285 284 284 283 283 283 283 282 282 281 281 282 288 289 288 282 280 279 280 280 282 282 282 282 282 283 283 283
277 279 282 282 284 285 287 286 285 284 286 286 286 286 286 285 284 283 283 284 283 283 282 282 282 282 280 287 288 286 282 281 279 277 277 279 279 283 284 281 281 281 283
276 279 281 283 283 285 285 283 282 283 285 286 286 287 286 286 285 285 284 284 284 284 283 282 282 282 281 286 286 285 283 281 280 277 275 281 280 284 284 276 280 278 281
277 276 280 281 282 285 283 280 281 282 286 287 286 286 286 286 286 285 284 283 283 282 282 282 282 281 281 282 286 286 283 281 280 279 277 278 284 284 284 283 277 280 277
273 276 280 281 283 282 280 279 280 284 286 286 286 286 286 286 285 284 283 282 282 282 281 281 280 281 281 282 286 286 286 285 281 280 279 278 284 284 284 280 282 281 277
279 279 278 281 282 282 279 279 279 280 283 284 286 285 284 285 285 284 282 282 282 282 281 281 281 281 281 281 285 286 287 286 282 281 281 284 284 284 282 283 280 275 270
279 278 278 279 279 281 279 278 277 278 280 285 285 285 284 283 283 284 283 283 282 282 282 282 282 281 280 279 280 281 283 284 284 283 280 281 281 280 277 274 275 272 271
279 276 277 278 278 278 277 273 275 276 278 283 283 283 284 284 283 284 283 283 284 285 284 284 284 282 280 281 282 281 280 282 283 278 276 275 273 271 270 269 270 269 268
275 276 276 274 274 274 275 273 271 273 276 280 281 283 283 283 283 283 282 287 286 287 288 288 286 284 286 286 285 285 284 285 285 277 276 275 274 273 271 272 271 270 271
Wind_Speed
8 6 7 8 14 15 15 16 14 14 10 9 9 6 6 5 4 5 7 6 6 5 5 4 4 2 3 3 2 1 3 3 4 3 3 1 3 3 4 4 4 5 5
8 9 8 6 10 14 17 17 17 16 12 10 8 4 7 3 4 5 5 6 7 5 5 5 4 3 2 4 3 3 2 1 3 2 0 1 2 2 2 3 3 6 4
7 8 8 10 9 12 17 19 19 18 14 12 7 7 5 5 4 5 4 4 6 6 6 5 5 4 2 3 2 2 2 1 1 5 2 2 0 2 2 3 2 5 4
10 8 9 6 9 12 13 17 19 18 15 15 12 16 10 10 5 5 5 5 7 6 6 6 4 3 2 3 2 3 2 1 1 2 3 4 3 2 3 3 2 5 5
11 10 10 10 9 8 10 13 15 16 16 16 14 11 9 4 8 7 9 6 6 6 6 6 5 4 3 3 3 3 2 1 2 2 2 4 2 2 2 3 4 4 3
13 12 11 10 8 5 7 8 14 15 16 15 15 16 14 10 10 9 8 6 4 4 6 6 5 5 5 4 3 3 3 3 3 3 3 2 2 2 3 2 3 3 3
9 13 15 13 11 10 2 5 8 12 14 14 13 13 10 14 14 13 9 10 6 4 6 6 5 4 5 5 4 3 4 3 3 3 3 3 3 3 2 2 2 3 3
8 8 9 9 10 9 7 4 6 8 12 11 12 11 9 9 9 11 9 8 7 7 8 6 6 6 6 5 4 3 3 4 3 4 4 3 2 2 2 1 2 3 2
15 12 8 7 8 9 9 7 4 5 8 8 7 8 10 11 11 10 9 8 7 7 8 7 7 6 6 6 6 4 4 4 5 3 4 3 2 2 1 0 1 0 3
16 15 11 7 6 7 8 8 6 4 7 7 6 6 8 9 11 10 11 9 9 10 9 8 7 7 6 6 6 4 5 6 3 3 3 3 3 2 2 2 1 2 1
17 15 14 12 8 7 7 8 6 4 5 6 6 7 7 7 9 10 9 11 10 10 9 8 7 7 6 6 6 5 7 5 5 4 4 4 3 3 2 1 1 1 2
14 13 13 13 13 13 9 7 7 4 6 6 6 7 7 9 10 10 10 10 11 8 9 8 7 7 7 6 7 6 5 5 6 6 6 5 3 4 3 2 2 1 1
13 13 12 13 14 14 13 11 7 7 5 6 7 7 7 9 8 9 10 10 11 8 8 9 9 8 7 7 6 6 5 5 5 6 6 5 4 3 3 2 1 1 1
14 12 13 13 13 13 11 12 11 7 6 5 7 8 8 9 9 9 10 11 10 10 9 7 7 7 7 7 4 7 6 4 3 4 4 4 4 4 3 2 1 1 2
12 14 15 15 13 13 12 9 10 10 6 6 6 7 7 8 9 9 9 10 10 9 8 9 7 6 7 6 8 6 7 7 4 3 5 5 3 2 2 1 1 2 1
6 12 15 15 14 13 13 12 11 10 7 7 8 7 8 11 11 11 13 12 12 10 11 9 9 8 5 13 15 10 7 6 6 5 4 4 5 5 3 2 3 4 2
5 10 15 13 14 15 14 14 13 10 10 9 8 9 11 12 12 11 11 12 12 11 9 8 9 8 6 15 16 12 5 5 5 5 5 4 3 4 3 1 1 2 2
6 11 13 14 14 13 15 14 11 10 10 11 10 10 11 11 11 11 12 10 10 12 10 9 8 8 7 16 16 12 5 4 4 4 5 5 5 4 3 1 1 1 2
7 8 12 12 14 16 14 14 13 11 11 13 12 12 13 13 13 14 13 11 11 9 9 8 10 10 7 17 17 13 6 5 5 4 4 4 4 5 3 2 1 2 2
7 9 12 12 11 16 13 15 14 12 13 13 13 13 14 15 16 15 14 11 11 10 8 8 9 10 8 17 17 14 6 6 4 3 4 8 6 7 5 4 2 1 1
8 6 8 10 13 15 13 14 14 14 13 10 11 12 13 15 14 13 10 12 11 10 9 9 8 8 9 11 20 20 8 6 5 5 4 4 11 9 7 6 4 2 2
6 7 8 11 15 11 8 12 14 13 11 9 11 12 13 11 9 12 9 11 11 11 10 9 6 5 7 11 19 21 16 12 6 5 4 4 11 11 8 5 5 2 1
6 6 5 13 14 12 7 14 13 13 14 8 10 11 11 11 11 13 11 10 10 9 9 9 8 7 6 6 15 18 18 15 5 4 7 10 11 10 6 8 5 3 2
7 4 6 12 15 14 7 9 12 12 12 10 9 9 11 11 10 9 9 9 10 9 8 9 8 6 6 7 7 7 8 11 8 9 5 7 7 7 6 3 4 2 2
5 3 9 11 13 11 9 6 9 10 11 8 4 7 8 11 10 10 10 10 10 11 11 10 10 11 9 11 15 14 9 9 8 8 3 2 2 3 2 2 3 3 2
3 8 8 8 8 8 9 7 7 9 10 5 3 6 6 7 8 9 7 10 9 14 12 13 12 5 7 15 21 21 20 19 20 4 4 6 5 6 5 5 4 3 4
Wind_Direction
257 257 219 182 169 168 164 171 172 173 160 160 150 146 163 145 132 127 134 131 126 122 118 120 118 101 92 91 57 5 353 356 351 304 9 112 140 62 72 50 63 46 25
249 245 238 193 172 173 173 175 179 178 173 168 166 141 152 149 134 125 136 134 121 130 125 122 112 90 90 96 63 51 328 51 21 12 261 68 335 13 113 74 52 55 16
259 264 231 206 189 189 182 180 179 180 174 167 153 128 120 104 113 138 135 140 133 132 121 114 115 116 90 103 101 71 51 7 11 62 100 28 168 348 354 67 47 45 32
3 353 327 245 203 199 190 184 180 178 173 166 169 168 165 160 166 148 143 151 138 145 129 126 122 121 128 111 133 88 44 25 112 63 57 61 75 68 332 335 58 30 34
7 348 337 327 278 197 189 187 182 180 174 174 173 164 156 150 139 142 143 144 139 140 142 137 140 144 126 103 103 119 89 55 68 60 78 60 49 68 84 304 332 4 18
18 3 346 333 331 242 176 180 181 183 181 180 171 170 161 157 146 148 149 147 140 149 149 142 151 141 123 135 132 116 112 91 75 75 69 68 65 52 40 3 330 329 304
29 13 2 352 350 345 213 182 184 186 183 182 176 173 163 158 155 155 157 155 157 159 166 157 151 145 142 130 134 139 134 123 115 99 81 56 44 53 53 17 352 344 329
31 27 6 352 346 340 323 244 206 185 183 177 179 179 156 156 154 158 156 159 161 157 157 154 157 141 139 140 140 135 133 119 134 114 107 93 76 43 46 48 25 333 325
12 3 13 2 347 341 328 309 265 193 172 169 175 173 160 155 156 155 152 150 147 143 150 146 143 142 147 150 150 142 140 143 147 141 141 139 146 118 68 41 288 64 327
2 358 357 3 346 335 321 316 297 216 167 164 173 167 162 153 151 149 150 146 140 141 146 146 142 144 147 151 135 133 162 164 143 141 156 145 143 153 199 212 227 213 256
358 358 357 358 338 334 327 314 300 254 173 174 180 162 160 143 141 145 143 146 139 145 147 146 143 149 152 159 140 159 174 175 166 155 161 148 164 166 153 241 244 231 241
348 352 352 348 351 351 330 312 303 266 201 184 164 162 154 144 147 147 146 146 145 143 146 144 147 151 156 162 154 159 166 174 174 166 157 173 194 164 170 199 237 251 284
344 346 352 354 347 342 343 328 302 287 225 184 164 163 163 153 154 150 147 145 142 141 145 150 159 157 157 158 159 153 167 178 180 173 168 162 158 182 187 221 254 287 281
347 339 344 338 335 330 330 329 312 284 240 196 173 171 171 163 160 154 149 147 148 150 150 147 146 147 147 145 143 140 162 166 163 154 144 174 175 182 203 224 274 333 314
345 343 333 329 326 320 321 317 309 293 249 209 186 184 173 152 152 156 152 149 154 153 148 150 153 143 154 165 165 163 166 174 166 159 161 176 168 137 177 221 280 321 272
345 325 321 321 320 318 314 311 304 291 266 216 200 178 162 159 168 169 166 161 160 159 161 164 162 160 167 176 179 172 174 174 169 175 181 179 176 194 205 251 278 284 257
308 313 314 312 312 311 306 304 300 289 260 230 202 184 180 176 175 169 162 164 163 160 163 161 161 170 164 185 185 172 169 169 174 171 170 174 171 171 195 270 322 340 311
275 303 304 306 308 304 302 296 290 273 258 235 209 189 183 180 172 171 173 163 163 167 167 170 170 170 177 189 188 175 153 150 167 167 171 168 173 171 147 104 75 21 358
264 268 287 294 299 307 304 298 295 282 264 238 214 196 185 181 176 182 178 169 163 164 171 171 171 176 177 189 187 175 162 171 189 182 169 163 161 184 193 118 105 28 53
249 269 287 299 302 308 308 303 296 285 269 240 220 201 189 188 185 187 179 174 169 169 164 169 182 180 174 190 188 180 165 177 181 184 180 187 178 191 193 136 149 94 58
263 264 294 293 303 311 305 297 297 283 274 236 218 200 195 189 192 183 175 167 163 157 168 175 175 178 176 186 190 189 182 177 176 179 182 186 198 195 192 172 158 174 118
279 282 298 302 312 308 299 301 296 295 277 228 215 202 191 186 173 171 167 163 163 165 170 170 169 179 176 184 195 197 192 185 174 188 176 172 188 187 187 160 183 159 116
282 283 286 306 315 307 304 306 306 310 301 227 213 200 185 184 171 169 171 165 168 175 175 178 182 186 178 186 196 199 201 198 173 151 175 175 180 183 178 174 169 142 167
288 270 304 305 309 309 300 297 310 313 304 255 207 189 182 176 172 172 171 173 178 180 177 180 183 162 169 182 181 185 200 202 184 175 160 167 164 160 148 133 167 169 153
279 273 298 295 301 303 300 305 314 318 308 276 195 175 184 179 174 182 178 184 191 185 177 185 179 180 190 199 189 174 179 187 183 133 114 131 129 157 164 159 161 153 146
254 294 286 283 295 300 301 311 311 320 311 280 196 173 175 179 177 174 158 191 173 186 190 181 177 190 178 169 184 187 191 186 171 135 164 185 192 194 185 179 174 177 185